GFSCGP_850_thetae_270.txt.gz
Theta_e
315 315 318 317 315 314 314 314 315 314 313 311 312 312 313 315 314 311 310 309 307 307 305 303 302 302 305 304 304 306 307 305 304 305 306 308 307 307 308 312 311 316 322 323
314 314 315 314 313 313 314 315 315 312 311 311 311 312 312 313 313 312 311 309 308 307 305 302 301 301 301 303 305 306 306 305 306 306 308 309 309 309 309 312 313 318 321 326
313 313 312 313 312 312 315 316 311 312 312 312 312 314 315 313 313 312 310 310 308 307 303 301 301 300 300 303 305 307 306 307 308 309 311 311 310 309 310 314 315 318 319 323
313 311 311 311 312 311 312 311 312 312 312 314 313 310 315 313 312 311 311 310 308 305 302 301 300 299 300 303 306 307 307 307 309 312 313 312 311 310 313 315 318 318 321 323
312 311 310 312 312 310 311 309 311 312 312 313 315 311 314 311 312 311 310 310 308 304 301 300 300 298 301 303 305 307 307 308 310 313 313 312 313 315 316 318 319 319 321 323
311 309 310 311 309 309 310 311 311 311 312 312 313 312 311 310 309 311 311 309 306 302 300 300 299 298 301 303 306 306 308 307 310 312 314 315 315 315 317 319 320 322 322 323
311 310 309 309 310 309 310 311 315 315 312 316 311 310 310 316 311 310 310 308 304 302 300 299 298 297 301 302 306 306 307 307 308 312 314 314 315 316 314 317 320 321 322 322
313 313 310 308 310 312 310 311 314 315 316 312 309 309 311 311 310 310 309 307 303 301 300 299 298 297 300 302 304 306 307 306 307 310 312 314 315 315 316 317 319 319 320 320
314 312 308 309 309 308 311 308 309 309 306 310 310 311 311 308 308 308 308 307 303 302 300 299 298 297 299 302 302 305 307 308 306 306 309 311 313 315 314 315 316 316 315 316
311 313 309 308 308 308 309 308 308 307 310 315 313 311 308 309 307 307 307 307 305 302 300 299 297 297 298 302 302 305 306 307 308 307 307 308 310 311 311 312 312 313 312 312
309 310 309 308 308 309 307 308 309 308 309 312 312 310 308 310 308 308 307 308 306 302 300 299 297 297 297 301 302 304 305 306 306 308 309 310 310 310 310 310 309 310 309 309
309 311 309 309 306 306 308 308 308 309 311 308 309 308 308 308 308 309 309 309 306 302 301 299 297 297 297 300 302 303 303 305 306 307 307 308 308 308 308 309 309 309 308 308
308 307 309 310 306 306 307 308 309 308 306 310 310 310 306 307 308 309 309 309 305 302 301 299 297 297 296 298 302 302 302 303 303 304 306 307 307 306 306 306 306 305 304 304
307 308 310 314 309 307 306 307 307 308 308 309 309 307 306 306 306 306 308 309 304 302 301 299 298 297 296 297 299 302 301 301 301 303 304 305 304 304 303 303 303 302 301 300
307 304 306 305 306 305 307 308 307 308 308 307 310 308 308 306 305 307 308 309 305 301 300 300 298 297 296 296 297 300 301 301 300 300 300 300 299 299 298 297 297 297 297 296
306 304 303 301 305 304 305 304 306 307 308 308 308 308 308 309 310 308 308 308 307 302 301 300 299 298 297 296 297 298 299 299 298 297 297 297 297 297 296 296 296 295 295 294
305 305 306 307 300 298 300 302 304 306 307 308 308 309 308 307 306 308 308 308 307 304 302 301 300 299 298 296 296 297 297 297 297 297 296 296 296 296 295 295 294 294 294 294
304 305 307 308 304 309 311 303 303 305 307 307 308 309 308 309 310 310 310 309 308 307 303 302 301 300 298 296 296 296 297 297 296 296 296 295 295 295 294 294 294 294 294 294
304 305 308 307 307 309 310 305 302 303 305 305 307 307 308 309 308 308 309 309 308 308 306 304 303 302 299 297 296 296 296 296 296 296 296 295 295 294 294 294 294 294 294 294
304 304 308 302 306 308 311 301 302 304 307 306 306 307 307 306 306 306 308 308 307 307 306 304 303 302 300 298 296 296 296 296 296 296 296 295 295 294 294 294 294 295 294 294
305 305 307 307 308 304 306 299 301 309 312 303 304 307 307 306 307 308 308 308 307 307 305 304 304 302 302 299 297 296 296 296 296 296 295 295 294 294 294 294 294 294 294 294
306 306 307 308 309 309 301 298 304 306 303 301 302 305 307 308 307 306 304 307 306 306 305 304 304 302 302 300 298 296 296 296 296 295 295 295 294 294 294 294 293 294 294 294
306 305 306 306 307 304 299 303 303 303 301 302 302 302 304 306 306 306 305 304 305 305 305 304 304 303 302 301 299 297 296 296 295 295 295 295 294 294 293 294 294 294 294 294
301 303 303 304 304 304 305 305 304 304 303 303 303 304 302 303 304 305 303 302 303 304 304 304 303 303 303 301 300 298 296 296 295 295 295 295 294 294 293 293 293 294 294 294
300 301 301 302 302 303 304 304 306 307 306 304 305 305 304 302 302 302 303 302 302 302 303 303 304 304 304 302 301 299 297 296 295 295 295 295 295 294 293 293 293 294 293 293
301 300 304 304 304 305 307 308 308 307 308 309 306 308 307 306 303 301 301 301 301 302 302 303 303 303 304 303 301 300 299 296 295 295 295 295 295 294 293 293 293 293 293 293

GFSCGP_850_thetae_276.txt.gz
Theta_e
313 309 306 311 311 313 312 312 311 311 311 310 310 310 309 309 310 309 310 311 309 307 306 306 304 299 298 300 303 304 306 307 308 310 311 311 311 310 309 307 306 307 308 311
310 309 310 311 311 311 312 311 310 309 310 309 308 310 309 308 307 308 310 311 309 306 307 306 302 299 298 301 303 305 307 308 309 311 312 311 311 310 309 307 307 308 309 313
310 312 311 311 310 311 311 309 308 308 308 308 307 307 307 311 310 310 310 312 308 308 307 306 300 298 298 301 305 306 307 308 308 311 313 312 314 312 312 308 308 310 310 316
310 310 310 309 311 309 310 311 309 310 308 306 306 309 303 309 310 309 310 309 308 308 307 304 299 298 299 302 306 306 307 308 309 312 312 313 314 314 314 312 311 312 312 317
310 309 309 310 310 308 309 308 309 310 309 309 307 304 307 307 308 309 308 308 309 308 306 301 299 297 300 303 306 306 308 308 310 311 312 313 313 315 316 313 313 313 316 317
309 308 308 309 307 308 307 309 309 308 308 306 304 306 308 304 308 307 308 310 309 306 304 300 298 297 301 303 306 307 308 308 308 310 312 313 314 314 317 316 316 314 317 318
309 309 307 308 308 308 309 307 308 308 308 309 310 308 310 307 310 307 307 309 307 305 302 300 298 297 301 304 306 307 309 308 309 310 313 312 313 314 316 316 318 317 316 320
309 311 307 307 308 308 307 307 309 309 312 310 307 310 308 306 308 309 308 309 306 303 301 300 298 297 301 305 306 308 309 309 309 311 313 312 311 314 316 316 317 318 317 318
309 311 307 306 307 307 308 309 306 307 300 306 306 305 304 307 306 306 306 305 304 303 301 299 298 297 302 305 306 308 309 309 309 309 312 313 312 314 316 317 318 318 315 315
309 311 308 307 307 306 307 305 306 303 304 307 307 308 307 307 306 304 302 303 304 302 301 299 298 297 301 305 305 307 309 309 311 310 311 313 313 311 314 316 317 318 318 318
308 310 308 307 307 307 306 307 307 305 307 310 308 308 303 306 305 304 303 305 305 303 301 299 298 297 300 304 305 306 308 309 310 309 309 311 312 312 312 316 316 316 316 315
309 309 309 309 305 305 304 306 306 309 307 305 308 308 305 306 305 304 305 307 307 305 302 300 298 297 299 303 306 306 307 308 309 309 309 310 310 311 312 312 313 313 313 313
307 302 303 305 305 303 306 305 305 303 304 306 307 309 304 303 306 306 306 307 307 306 302 300 298 297 298 302 304 305 306 307 307 308 308 309 309 309 309 309 309 309 309 309
307 304 306 312 311 303 306 305 305 305 305 306 307 307 306 304 304 305 306 307 307 307 303 301 299 298 297 300 302 302 306 306 306 307 307 307 306 307 307 306 306 306 306 305
307 313 304 305 305 304 305 305 305 305 307 307 309 307 309 307 305 304 308 308 307 306 303 302 301 299 297 298 301 302 302 307 307 307 307 307 305 305 303 303 302 302 301 300
306 309 302 300 303 302 303 303 304 305 307 307 306 307 308 307 307 304 306 306 306 306 305 303 302 300 298 298 299 302 302 301 304 306 305 303 301 300 299 298 297 297 296 296
306 304 307 313 302 297 304 302 303 305 304 306 307 308 307 306 305 307 307 306 307 307 306 305 303 302 302 299 298 300 301 301 299 302 300 298 298 297 297 296 296 295 295 294
305 307 307 307 295 307 309 303 303 305 307 305 306 308 308 307 308 309 309 309 308 307 307 307 305 303 303 300 297 298 300 300 299 298 297 297 296 296 296 295 295 295 295 294
305 305 306 308 299 304 309 306 302 303 309 305 306 306 306 307 307 306 307 308 310 310 309 309 308 307 304 302 298 297 299 299 298 297 297 296 296 296 295 295 294 294 295 295
303 305 309 301 303 305 307 303 301 303 309 305 305 305 305 304 304 305 308 308 308 309 309 308 307 307 304 303 299 297 297 298 298 297 297 296 296 295 295 295 295 295 294 294
305 306 310 304 304 302 302 301 301 307 311 303 304 304 304 302 305 307 307 308 307 308 308 308 307 307 306 303 301 297 297 297 298 297 297 296 296 295 295 294 295 295 295 294
307 307 307 306 309 310 303 300 305 306 304 303 302 303 303 304 304 305 306 306 307 307 308 307 307 306 306 304 302 299 297 297 297 297 296 296 296 295 295 294 294 294 294 294
308 305 305 308 308 304 301 306 307 307 305 304 303 304 303 304 304 304 304 306 306 306 306 306 307 306 306 304 303 302 301 297 297 296 296 296 296 295 295 294 294 294 294 294
301 301 303 304 304 302 304 306 307 307 307 307 306 305 305 305 307 307 305 303 305 305 305 305 305 305 305 305 303 303 302 299 297 296 296 296 296 295 295 295 294 294 294 295
301 301 300 299 301 302 304 306 309 309 308 308 308 308 307 306 306 306 305 306 303 304 304 304 305 305 305 305 304 303 302 300 297 296 296 296 296 295 295 294 295 295 295 295
299 300 305 306 304 306 307 310 309 308 308 309 307 307 307 306 306 306 307 306 305 303 303 303 304 305 305 304 304 303 302 301 298 296 296 296 296 295 295 294 294 294 294 294

GFSCGP_850_thetae_279.txt.gz
Theta_e
312 308 306 308 310 312 312 311 311 309 310 310 309 309 309 308 309 308 310 311 311 310 308 306 306 303 299 299 300 304 304 307 307 310 311 311 311 313 310 309 307 305 307 307
310 310 309 308 310 311 311 311 309 308 309 309 308 308 308 307 306 307 308 310 311 309 307 306 306 301 298 299 301 304 306 307 308 310 311 311 313 313 312 309 307 306 307 308
310 311 310 311 310 311 310 308 307 309 307 307 305 308 306 308 309 309 307 308 309 310 307 306 305 299 298 299 302 305 307 307 309 311 311 312 312 313 314 310 307 307 308 309
309 309 310 309 310 308 310 309 309 309 307 307 305 310 304 306 307 309 308 309 310 308 307 306 303 298 298 300 304 307 308 308 310 310 310 312 312 314 313 312 311 309 310 315
310 309 309 309 309 307 308 308 308 309 308 309 307 305 307 305 308 309 308 309 309 308 307 306 300 298 299 301 305 308 309 309 310 311 311 312 312 315 314 314 313 312 313 317
308 308 308 308 307 307 306 308 307 307 307 309 304 306 309 303 308 306 307 309 308 308 306 304 299 298 300 302 307 309 310 310 311 312 311 312 312 314 314 315 313 315 315 318
309 308 307 307 307 307 308 306 308 309 309 312 308 308 311 307 308 307 306 309 309 307 305 302 299 298 301 303 308 309 310 310 311 312 312 313 313 314 314 315 314 316 317 318
308 309 307 306 308 308 306 306 309 311 311 310 307 310 309 305 306 307 309 309 309 306 304 300 298 298 302 304 307 309 309 311 311 311 311 313 314 315 315 315 316 317 317 318
308 310 306 306 306 306 307 308 306 306 299 306 306 304 304 304 307 306 306 307 307 306 303 300 299 298 302 304 306 308 308 310 310 311 312 313 315 315 314 316 317 315 315 316
309 310 307 306 306 306 306 304 306 304 305 307 307 307 307 308 307 305 303 304 306 305 303 301 299 298 302 304 306 308 309 310 310 310 311 312 314 315 314 316 315 315 317 316
307 309 308 307 307 307 306 306 306 304 306 309 308 312 303 305 305 305 303 306 306 305 304 302 299 298 301 304 306 307 308 310 310 310 311 312 312 313 315 315 315 316 316 317
308 308 308 308 305 304 305 306 305 308 308 305 307 308 304 303 305 303 305 307 307 306 305 302 300 298 300 303 306 306 308 309 310 311 311 311 311 312 313 315 315 315 315 315
306 303 305 310 306 302 306 304 305 303 304 306 308 310 303 303 303 306 305 306 308 306 305 302 300 299 298 302 305 306 307 309 309 310 310 311 311 311 312 312 312 313 313 313
306 304 307 316 311 304 306 305 303 305 305 306 306 306 307 305 303 304 306 306 307 307 306 304 301 300 298 301 303 306 307 307 307 307 308 309 309 310 310 310 309 310 310 310
306 305 304 305 304 304 305 305 304 305 307 308 310 308 310 307 304 304 308 307 307 307 307 306 303 301 299 299 302 306 307 307 307 307 307 306 306 306 306 307 305 305 305 305
305 304 301 302 303 303 303 303 304 305 306 305 306 307 307 306 307 305 306 306 307 307 307 307 305 302 300 299 301 302 307 307 307 307 307 305 304 303 303 302 301 299 298 297
305 301 307 316 302 299 307 302 304 304 303 307 307 309 308 307 305 307 308 307 306 308 308 308 307 305 303 302 299 302 303 307 307 306 305 303 302 300 298 298 297 296 296 296
305 304 307 309 302 316 312 303 304 306 308 305 305 307 307 306 307 307 307 308 308 309 308 307 308 306 304 303 300 300 302 302 301 304 302 300 298 298 297 296 295 295 295 295
307 307 308 310 301 307 310 303 303 305 308 305 306 306 307 306 306 306 308 308 307 307 308 310 309 308 307 304 302 298 300 301 300 300 300 298 297 297 296 296 295 295 295 295
305 308 312 302 306 308 308 303 301 304 311 305 305 306 305 304 304 303 307 307 307 307 307 308 309 308 307 305 303 299 298 300 301 299 298 297 297 297 297 296 296 295 294 294
307 308 311 306 303 302 302 299 301 309 312 303 305 305 304 302 304 306 305 305 306 306 307 307 307 307 307 306 304 301 298 298 300 300 298 297 297 297 296 296 296 295 295 295
308 309 310 306 310 311 301 299 305 306 303 303 304 305 305 305 305 305 306 306 305 306 306 306 307 308 306 305 304 302 301 300 298 299 298 297 297 296 296 295 295 295 295 295
309 308 308 309 308 304 301 303 303 306 305 302 304 304 303 304 305 306 306 306 307 304 305 305 305 306 306 306 305 304 303 301 298 298 298 297 296 296 295 295 295 295 295 295
302 301 304 306 304 302 305 306 306 306 306 304 306 305 304 305 306 306 306 307 306 306 303 304 305 305 305 306 305 305 303 303 300 297 298 297 296 296 295 295 294 295 295 295
302 301 302 301 301 301 304 306 308 306 308 307 307 306 307 306 307 306 306 307 306 306 305 303 304 304 305 305 305 305 304 302 301 298 297 297 296 296 296 295 295 295 295 295
299 301 306 308 305 305 307 309 309 308 310 308 307 307 306 306 306 305 306 306 306 306 304 304 304 303 304 305 304 304 304 303 301 299 297 297 296 296 296 295 295 295 294 295

GFSCGP_850_thetae_282.txt.gz
Theta_e
310 307 307 308 309 311 311 312 311 309 309 310 309 309 309 308 308 307 309 310 311 311 310 309 308 306 305 299 299 302 306 307 307 310 310 311 312 312 312 310 308 307 305 306
310 310 308 307 308 311 310 310 309 307 307 308 307 307 307 305 305 306 306 307 309 310 310 308 307 306 301 299 301 305 308 308 309 310 310 310 311 313 311 310 307 306 306 306
311 311 309 310 310 311 310 309 306 308 307 306 304 308 307 307 308 309 308 307 308 310 310 308 306 305 299 299 303 307 309 309 310 311 312 312 313 314 311 312 308 307 307 307
310 309 310 310 310 309 311 308 308 309 307 307 304 310 306 304 305 308 308 307 308 309 308 307 306 302 299 301 306 309 309 310 311 312 313 312 312 312 314 314 311 309 309 309
309 309 309 309 309 307 309 307 308 308 308 308 306 304 308 304 307 308 307 307 308 309 307 307 305 299 299 303 308 309 310 311 312 312 313 312 312 313 312 311 312 312 313 316
307 307 307 308 306 307 306 308 307 306 306 307 304 305 309 303 307 306 307 308 308 307 307 306 302 299 299 304 308 309 310 310 311 312 312 313 314 313 312 314 314 316 316 316
308 308 306 306 307 307 306 306 308 309 309 313 307 308 310 307 305 307 305 308 308 308 307 306 301 298 299 304 308 308 309 311 311 312 313 314 314 314 314 315 314 314 318 318
308 309 306 305 307 307 306 306 309 312 310 309 307 310 310 305 305 307 307 307 309 308 307 306 300 298 299 303 308 308 309 311 312 313 314 314 314 314 314 316 317 317 317 317
307 310 305 306 306 306 307 307 305 306 298 306 307 305 304 303 303 306 306 306 308 309 307 305 300 298 299 303 307 308 309 310 311 312 312 314 315 315 315 315 316 316 318 319
307 310 306 306 306 306 306 304 307 304 307 308 307 306 308 307 306 303 304 304 307 307 306 303 300 298 299 303 307 308 309 310 311 312 312 313 314 314 316 315 314 317 319 319
306 308 307 306 306 306 306 306 306 304 305 309 309 313 304 306 305 304 303 306 307 307 306 303 300 298 299 304 306 307 308 310 311 312 312 314 313 314 315 315 315 316 318 316
306 306 306 307 305 304 304 305 304 307 307 304 306 309 305 304 304 304 305 307 307 307 307 304 301 299 299 303 305 307 308 309 310 311 312 314 314 314 315 316 316 316 317 317
306 303 302 305 305 302 305 304 304 303 304 306 308 310 303 303 303 304 304 305 307 307 306 304 302 300 298 302 305 306 308 309 309 310 312 312 313 314 314 314 315 315 316 314
307 304 310 315 315 305 306 305 304 305 304 307 306 308 308 307 305 303 306 306 307 307 307 306 303 301 299 300 304 306 307 307 308 309 310 311 311 312 313 313 314 314 314 313
305 303 303 305 304 305 306 305 303 305 307 309 311 306 310 307 305 304 307 308 307 307 307 306 306 303 300 299 303 306 307 307 307 308 309 310 309 309 309 310 310 310 310 310
305 306 302 305 304 304 303 304 304 304 306 305 306 306 307 305 308 306 306 305 306 307 308 308 307 305 302 300 301 306 307 307 306 306 307 308 308 308 306 306 307 307 308 309
306 302 306 309 302 300 310 304 303 304 302 306 306 309 307 307 304 305 308 309 308 307 309 308 308 307 305 303 300 304 308 307 307 306 306 306 306 305 303 300 300 300 300 299
305 307 310 310 303 320 313 303 304 307 309 305 305 306 305 306 307 307 308 307 307 307 308 308 308 307 307 304 301 301 306 307 307 307 306 305 303 302 300 298 297 296 296 295
306 309 311 312 305 310 311 303 303 306 309 306 306 307 308 307 306 306 306 306 306 306 306 306 307 309 308 307 303 299 303 305 306 306 304 304 301 299 298 297 296 296 296 296
307 309 311 305 313 310 309 304 302 305 310 307 306 307 305 304 305 303 305 305 305 306 306 306 306 307 307 307 305 301 299 303 303 303 302 302 300 298 297 296 296 296 296 296
308 309 311 308 309 302 302 299 302 309 312 305 306 306 303 303 305 306 305 306 306 305 306 306 307 307 307 307 306 303 301 299 303 303 301 301 299 297 296 296 296 295 295 295
309 310 311 306 308 312 299 300 307 307 304 304 305 307 306 306 305 306 305 306 306 306 305 305 306 306 306 306 305 305 303 303 299 301 302 300 298 297 296 296 295 295 294 295
310 309 309 308 310 304 301 302 304 305 302 302 305 305 306 304 306 307 306 306 306 306 306 305 304 305 305 305 305 305 306 303 301 299 301 301 298 297 296 296 295 295 294 294
297 300 304 308 307 303 305 305 305 304 304 302 303 303 304 306 307 307 307 307 306 307 307 306 305 304 305 305 305 305 303 304 302 300 298 300 299 297 297 296 296 295 295 295
294 296 302 301 302 301 304 306 308 305 307 306 306 305 305 306 307 305 306 306 305 305 306 306 304 304 303 304 304 304 304 302 302 301 300 298 299 298 297 296 296 296 295 295
295 300 302 304 295 298 303 305 305 307 308 310 308 308 306 305 305 304 304 304 304 305 305 304 304 304 305 304 303 304 303 303 302 300 299 299 298 298 298 297 296 296 295 295